Regional Weather Roundup
Issued by NWS Newport/Morehead, NC

Current Version | Previous Version | Graphics & Text | Print | Product List | Glossary On
Versions: 1 2 3 4 5 6 7 8 9 10 11 12 13 14 15 16 17 18 19 20 21 22 23 24 25 26 27 28 29 30 31 32 33 34 35 36 37 38 39 40 41 42 43 44 45 46 47 48 49 50
000 ASUS42 KMHX 070925 RWRMHX WEATHER ROUNDUP FOR EASTERN NORTH CAROLINA NATIONAL WEATHER SERVICE NEWPORT/MOREHEAD CITY NC 400 AM EST SUN FEB 07 2016 NOTE: "FAIR" INDICATES FEW OR NO CLOUDS BELOW 12,000 FEET WITH NO SIGNIFICANT WEATHER AND/OR OBSTRUCTIONS TO VISIBILITY NCZ015>017-031-032-045>047-102-103-071000- NORTH COAST CITY SKY/WX TMP DP RH WIND PRES REMARKS EDENTON CLOUDY 39 31 72 N6 30.19R ELIZABETH CITY CLOUDY 39 30 70 N9 30.18S KITTY HAWK CLOUDY 42 32 67 N10G18 30.13F MANTEO CLOUDY 42 34 73 NE15G22 30.15R $$ NCZ045>047-081-094-103-104-071000- CENTRAL COAST CITY SKY/WX TMP DP RH WIND PRES REMARKS FRISCO CLOUDY 44 36 73 N15G28 30.10F SWANQUARTER N/A 39 N/A N/A N9G18 30.06F $$ NCZ095-097-098-100-101-071000- SOUTHERN COAST CITY SKY/WX TMP DP RH WIND PRES REMARKS BEAUFORT LGT RAIN 38 31 76 N20G28 30.05F CEDAR ISLAND N/A 41 N/A N/A N31 30.12F JACKSONVILLE LGT RAIN 38 32 79 N15G25 30.08F PINEY ISLAND LGT RAIN N/A N/A N/A MISG 30.08F WILMINGTON RAIN 38 33 82 N17 30.05F $$ NCZ011>013-027>030-043-044-078>080-089-090>093-098-071000- COASTAL PLAIN CITY SKY/WX TMP DP RH WIND PRES REMARKS AHOSKIE CLOUDY 36 29 78 CALM 30.20F CLINTON RAIN 37 35 93 NE7 30.13F ELIZABETHTOWN RAIN 37 34 92 N5 30.07F GOLDSBORO CLOUDY 37 37 100 NE8 30.09F GREENVILLE LGT RAIN 37 32 81 NE8 30.13F HAVELOCK LGT RAIN 39 33 79 N20 30.10F KENANSVILLE LGT RAIN 36 33 88 N6 30.12F KINSTON LGT RAIN 37 33 85 N9 30.12F NEW BERN LGT RAIN 38 31 76 N16 30.11F RICHLANDS CLOUDY 37 28 70 N14G20 30.08F ROCKY MOUNT LGT RAIN 36 32 85 NE6 30.16F WASHINGTON MIX PCPN 38 29 69 CALM 30.17F WHITEVILLE RAIN 37 34 88 N13G22 30.03F $$ AMZ130-135-150-152-154-156-158-170-250-252-270-ANZ085-086-088-633-658-670-071000- MARINE OBSERVATIONS STATION/POSITION TIME TEMP WIND PRES WAVE SWELL AIR SEA DIR/SP/G HT/PER HT/PER (UTC) (F) (DEG/KT/KT) (MB) (FT/S) (FT/S) CHESAPEAKE LIGHT 0900 41 40/ 15/ 15 1023.2 64 E VA BEACH 0850 47 53 20/ 17/ 23 1020.7 5/11 3/11 DUCK 0900 42 45 20/ 20/ 24 1020.5 2 E DUCK 0911 44 N/A 4/10 2/11 OREGON INLET 0900 43 46 10/ 13/ 20 1020.5 13E OREGON INLT 0900 47 N/A 6/ 5 2/12 HATTERAS CG 0900 44 49 10/ 26/ 32 1018.0 DIAMOND BUOY 0850 53 71 20/ 29/ 35 1016.8 8/ 6 3/11 CAPE LOOKOUT NOT AVBL BEAUFORT LAB 0900 39 48 10/ 19/ 29 1016.7 30 SE NEW RVR IN 0908 41 64 1013.8 30 SE NEW RVR IN 0825 64 N/A 9/ 6 2/11 27 SE WRIGHTSVLE 0908 46 68 360/ 33/ 45 1013.6 5 SE WRIGHTSVLE 0808 42 53 30/ 29/ 39 1016.9 225 S CAPE HAT 0850 65 69 100/ 17/ 21 N/A 7/10 5/10 41 SE CHARLESTON 0850 50 65 10/ 31/ 39 1011.5 11/ 7 2/11 $$

USA.gov is the U.S. government's official web portal to all federal, state and local government web resources and services.